Le nostre stazioni meteo in Italia

Pubblicità
Il mio iltempo24.it
Passo Dei Giovi, Italia (16119): Temperatura & dewpoint: 14.01.2019 07:00:00 - 20.01.2019 07:00:00 (CET)Passo Dei Giovi, Italia (16119): velocità del vento: 14.01.2019 07:00:00 - 20.01.2019 07:00:00 (CET)Passo Dei Giovi, Italia (16119): direzione del vento: 14.01.2019 07:00:00 - 20.01.2019 07:00:00 (CET)Passo Dei Giovi, Italia (16119): reduced air pressure: 14.01.2019 07:00:00 - 20.01.2019 07:00:00 (CET)Passo Dei Giovi, Italia (16119): visibility: 14.01.2019 07:00:00 - 20.01.2019 07:00:00 (CET)
Data & Tempo tt [°C] td [°C] ff [km/h] ff [kn] dd ppp [hPa] vv [km]
20.01.2019 07:00:00 - - - - - - -
20.01.2019 06:00:00 - - - - - - -
20.01.2019 05:00:00 - - - - - - -
20.01.2019 04:00:00 - - - - - - -
20.01.2019 03:00:00 - - - - - - -
20.01.2019 02:00:00 - - - - - - -
20.01.2019 01:00:00 - - - - - - -
20.01.2019 00:00:00 - - - - - - -
19.01.2019 23:00:00 - - - - - - -
19.01.2019 22:00:00 - - - - - - -
19.01.2019 21:00:00 - - - - - - -
19.01.2019 20:00:00 - - - - - - -
19.01.2019 19:00:00 0,8 -0,4 16 9 N 1015,6 8
19.01.2019 18:00:00 1,0 0,0 - - - - 8
19.01.2019 17:00:00 1,0 0,0 - - - - 8
19.01.2019 16:00:00 0,8 0,5 0 0 N 1015,8 7
19.01.2019 15:00:00 1,0 1,0 - - - - 0,8
19.01.2019 14:00:00 0,0 0,0 - - - - 0,3
19.01.2019 13:00:00 0,4 0,0 26 14 N 1017,1 0,8
19.01.2019 12:00:00 0,0 0,0 - - - - 0,8
19.01.2019 11:00:00 0,0 0,0 - - - - 0,8
19.01.2019 10:00:00 0,6 0,2 21 11 N 1016,5 0,5
19.01.2019 09:00:00 1,0 1,0 - - - - 0,3
19.01.2019 08:00:00 1,0 1,0 - - - - 0,6
19.01.2019 07:00:00 1,0 0,7 18 10 N 1015,4 0,5
19.01.2019 06:00:00 - - - - - - -
19.01.2019 05:00:00 - - - - - - -
19.01.2019 04:00:00 - - - - - - -
19.01.2019 03:00:00 - - - - - - -
19.01.2019 02:00:00 - - - - - - -
19.01.2019 01:00:00 - - - - - - -
19.01.2019 00:00:00 - - - - - - -
18.01.2019 23:00:00 - - - - - - -
18.01.2019 22:00:00 - - - - - - -
18.01.2019 21:00:00 - - - - - - -
18.01.2019 20:00:00 - - - - - - -
18.01.2019 19:00:00 4,2 -4,3 8 4 N 1013,0 12
18.01.2019 18:00:00 5,0 -6,0 - - - - 10
18.01.2019 17:00:00 - - - - - - -
18.01.2019 16:00:00 6,0 -7,9 9 5 N 1012,0 12
18.01.2019 15:00:00 - - - - - - -
18.01.2019 14:00:00 - - - - - - -
18.01.2019 13:00:00 5,6 -7,9 13 7 N 1011,5 12
18.01.2019 12:00:00 - - - - - - -
18.01.2019 11:00:00 - - - - - - -
18.01.2019 10:00:00 3,0 -1,5 8 4 N 1012,0 12
18.01.2019 09:00:00 - - - - - - -
18.01.2019 08:00:00 - - - - - - -
18.01.2019 07:00:00 3,2 1,6 16 9 N 1010,3 10
18.01.2019 06:00:00 - - - - - - -
18.01.2019 05:00:00 - - - - - - -
18.01.2019 04:00:00 - - - - - - -
18.01.2019 03:00:00 - - - - - - -
18.01.2019 02:00:00 - - - - - - -
18.01.2019 01:00:00 - - - - - - -
18.01.2019 00:00:00 - - - - - - -
17.01.2019 23:00:00 - - - - - - -
17.01.2019 22:00:00 - - - - - - -
17.01.2019 21:00:00 - - - - - - -
17.01.2019 20:00:00 - - - - - - -
17.01.2019 19:00:00 4,6 2,5 13 7 N 1011,6 8
17.01.2019 18:00:00 7,0 7,0 - - - - 6
17.01.2019 17:00:00 7,0 7,0 - - - - 0,8
17.01.2019 16:00:00 7,2 6,8 16 9 S 1011,5 0,1
17.01.2019 15:00:00 7,0 7,0 - - - - 0,1
17.01.2019 14:00:00 7,0 7,0 - - - - 6
17.01.2019 13:00:00 7,2 6,9 11 6 S 1013,4 0,8
17.01.2019 12:00:00 7,0 7,0 - - - - 0,6
17.01.2019 11:00:00 7,0 7,0 - - - - 0,5
17.01.2019 10:00:00 6,8 5,9 15 8 S 1014,7 0,2
17.01.2019 09:00:00 7,0 6,0 - - - - 0,6
17.01.2019 08:00:00 - - - - - - -
17.01.2019 07:00:00 7,0 5,6 18 10 S 1014,6 8
17.01.2019 06:00:00 - - - - - - -
17.01.2019 05:00:00 - - - - - - -
17.01.2019 04:00:00 - - - - - - -
17.01.2019 03:00:00 - - - - - - -
17.01.2019 02:00:00 - - - - - - -
17.01.2019 01:00:00 - - - - - - -
17.01.2019 00:00:00 - - - - - - -
16.01.2019 23:00:00 - - - - - - -
16.01.2019 22:00:00 - - - - - - -
16.01.2019 21:00:00 - - - - - - -
16.01.2019 20:00:00 - - - - - - -
16.01.2019 19:00:00 7,0 5,6 28 15 S 1018,5 10
16.01.2019 18:00:00 - - - - - - -
16.01.2019 17:00:00 - - - - - - -
16.01.2019 16:00:00 7,4 5,9 31 17 S 1018,6 10
16.01.2019 15:00:00 8,0 6,0 - - - - 10
16.01.2019 14:00:00 7,0 6,0 - - - - 10
16.01.2019 13:00:00 7,6 5,8 34 18 S 1019,4 10
16.01.2019 12:00:00 - - - - - - -
16.01.2019 11:00:00 - - - - - - -
16.01.2019 10:00:00 8,2 4,6 41 22 S 1019,9 12
16.01.2019 09:00:00 - - - - - - -
16.01.2019 08:00:00 8,0 5,0 - - - - 10
16.01.2019 07:00:00 7,8 4,7 26 14 S 1019,7 12
16.01.2019 06:00:00 - - - - - - -
16.01.2019 05:00:00 - - - - - - -
16.01.2019 04:00:00 - - - - - - -
16.01.2019 03:00:00 - - - - - - -
16.01.2019 02:00:00 - - - - - - -
16.01.2019 01:00:00 - - - - - - -
16.01.2019 00:00:00 - - - - - - -
15.01.2019 23:00:00 - - - - - - -
15.01.2019 22:00:00 - - - - - - -
15.01.2019 21:00:00 - - - - - - -
15.01.2019 20:00:00 - - - - - - -
15.01.2019 19:00:00 7,2 1,5 15 8 S 1019,4 20
15.01.2019 18:00:00 - - - - - - -
15.01.2019 17:00:00 - - - - - - -
15.01.2019 16:00:00 8,8 1,7 22 12 S 1018,2 20
15.01.2019 15:00:00 - - - - - - -
15.01.2019 14:00:00 11,0 -3,0 - - - - 10
15.01.2019 13:00:00 10,2 -8,0 15 8 S 1018,5 20
15.01.2019 12:00:00 - - - - - - -
15.01.2019 11:00:00 - - - - - - -
15.01.2019 10:00:00 3,2 -10,4 11 6 N 1019,2 20
15.01.2019 09:00:00 - - - - - - -
15.01.2019 08:00:00 - - - - - - -
15.01.2019 07:00:00 5,2 -14,3 5 3 N 1016,0 15
15.01.2019 06:00:00 - - - - - - -
15.01.2019 05:00:00 - - - - - - -
15.01.2019 04:00:00 - - - - - - -
15.01.2019 03:00:00 - - - - - - -
15.01.2019 02:00:00 - - - - - - -
15.01.2019 01:00:00 - - - - - - -
15.01.2019 00:00:00 - - - - - - -
14.01.2019 23:00:00 - - - - - - -
14.01.2019 22:00:00 - - - - - - -
14.01.2019 21:00:00 - - - - - - -
14.01.2019 20:00:00 - - - - - - -
14.01.2019 19:00:00 7,6 -7,3 8 4 N 1009,3 15
14.01.2019 18:00:00 - - - - - - -
14.01.2019 17:00:00 - - - - - - -
14.01.2019 16:00:00 10,8 -11,3 16 9 N 1006,5 20
14.01.2019 15:00:00 - - - - - - -
14.01.2019 14:00:00 - - - - - - -
14.01.2019 13:00:00 10,8 -7,0 18 10 N 1005,8 20
14.01.2019 12:00:00 - - - - - - -
14.01.2019 11:00:00 - - - - - - -
14.01.2019 10:00:00 3,0 2,3 8 4 N 1006,4 15
14.01.2019 09:00:00 - - - - - - -
14.01.2019 08:00:00 - - - - - - -
14.01.2019 07:00:00 3,2 2,8 15 8 N 1003,8 12

tt = Temperatura
td = dewpoint
ff = velocità del vento
dd = direzione del vento
ppp = reduced air pressure
vv = visibility

Stazioni seguenti

WeatherPro
AMSI
MeteoEarth